Regional Weather Roundup
Issued by NWS

Home | Current Version | Previous Version | Graphics & Text | Print | Product List | Glossary On
Versions: 1 2 3 4 5 6 7 8 9 10 11 12 13 14 15 16 17 18 19 20 21 22 23 24 25 26 27 28 29 30 31 32 33 34 35 36 37 38 39 40 41 42 43 44 45 46 47 48 49 50
000
ASUS43 KMKX 020100
RWRWI

WISCONSIN REGIONAL WEATHER ROUNDUP
NATIONAL WEATHER SERVICE MILWAUKEE/SULLIVAN WI
800 PM CDT TUE SEP 01 2015

NOTE: "FAIR" INDICATES FEW OR NO CLOUDS BELOW 12,000 FEET WITH NO
SIGNIFICANT WEATHER AND/OR OBSTRUCTIONS TO VISIBILITY.

WIZ001-002-006>008-014>016-023>028-020200-
NORTHWEST WISCONSIN

CITY           SKY/WX    TMP DP  RH WIND       PRES   REMARKS
SUPERIOR ARPT  PTCLDY    73  72  95 CALM      29.89R
ASHLAND        MOCLDY    75  73  93 N3        29.92R
HAYWARD        CLOUDY    77  72  84 CALM      29.95R
SIREN          MOCLDY    78  72  82 CALM      29.93R HX  81
CUMBERLAND     CLOUDY    77  72  83 CALM      29.94S
RICE LAKE      CLOUDY    75  72  89 CALM      29.95R
CHETEK         CLOUDY   N/A N/A N/A CALM      29.93R
LADYSMITH      CLOUDY    77  72  85 CALM      29.97R
EAU CLAIRE     NOT AVBL
MENOMONIE      MOCLDY    81  75  82 CALM      29.91S HX  86
NEW RICHMOND   MOCLDY    79  74  84 CALM      29.92R HX  82
OSCEOLA        MOCLDY    80  73  80 CALM      29.94R HX  84
$$

WIZ003>005-009-010-017-018-020200-
NORTH CENTRAL WISCONSIN

CITY           SKY/WX    TMP DP  RH WIND       PRES   REMARKS
MANITOWISH WTR MOCLDY    72  71  99 CALM      29.97R
ARBOR VITAE    MOCLDY    77  72  85 CALM      29.98R
WOODRUFF       MOCLDY    77  72  85 CALM      29.98R
RHINELANDER    MOCLDY    73  70  90 CALM      29.99R
EAGLE RIVER    MOCLDY    72  67  84 CALM      29.97R
LAND O LAKES   PTCLDY    72  68  88 CALM      29.98R
PHILLIPS       MOCLDY    74  71  92 CALM      29.96S
TOMAHAWK       MOCLDY    73  71  91 CALM      29.97S FOG
MEDFORD        CLOUDY    74  73  94 CALM      29.96R
MERRILL        MOCLDY    77  74  91 CALM      29.96S
$$

WIZ029-030-035-036-043>047-020200-
CENTRAL WISCONSIN

CITY           SKY/WX    TMP DP  RH WIND       PRES   REMARKS
WAUSAU         PTCLDY    79  71  76 SW3       29.94R HX  82
MOSINEE        CLEAR     75  73  94 S3        29.97
MARSHFIELD     MOCLDY    78  69  73 SW5       29.95S HX  80
STEVENS POINT  PTCLDY    78  69  74 CALM      29.96R HX  80
WAUPACA        PTCLDY    81  74  81 CALM      29.94S HX  86
WAUTOMA        NOT AVBL
WISC RAPIDS    PTCLDY    78  70  76 S3        29.96R HX  80
CAMP DOUGLAS   NOT AVBL
$$

WIZ011>013-019>022-031-037>040-048>050-020200-
NORTHEAST WISCONSIN

CITY           SKY/WX    TMP DP  RH WIND       PRES   REMARKS
ANTIGO         MOCLDY    75  71  86 CALM      29.97S
SHAWANO        PTCLDY    79  72  77 CALM      29.94R HX  82
OCONTO         PTCLDY    76  76 100 CALM      29.92R
STURGEON BAY   PTCLDY    72  64  78 S7        29.97R
GREEN BAY      CLEAR     78  71  79 S6        29.94R HX  80
MANITOWOC      NOT AVBL
APPLETON       NOT AVBL
CLINTONVILLE   PTCLDY    77  70  78 CALM      29.94R
OSHKOSH        CLEAR     77  72  84 S7        29.95R
$$

WIZ032>034-041-042-053>061-020200-
SOUTHWEST WISCONSIN

CITY           SKY/WX    TMP DP  RH WIND       PRES   REMARKS
LA CROSSE      MOCLDY    82  73  74 S6        29.92R HX  87
SPARTA         MOCLDY    80  70  70 S3        29.95R HX  83
VIROQUA          N/A     79  73  83 S5        29.97S HX  82
BOSCOBEL       MOCLDY    81  74  79 CALM      29.95R HX  86
PRAIRIE DU CHI MOCLDY    82  71  69 CALM      29.94R HX  87
PLATTEVILLE    PTCLDY    78  74  90 SW6       29.98R
$$

WIZ056-057-062-063-064-067-068-020200-
SOUTH CENTRAL WISCONSIN

CITY           SKY/WX    TMP DP  RH WIND       PRES   REMARKS
REEDSBURG      PTCLDY    80  73  81 CALM      29.95S HX  84
BARABOO/DELLS  PTCLDY    79  70  73 SW3       29.96R HX  81
LONE ROCK      NOT AVBL
MINERAL POINT  PTCLDY    79  73  83 SW6       29.99R HX  82
MADISON        PTCLDY    82  71  69 SW3       29.97R HX  86
MIDDLETON      CLEAR     79  71  74 CALM      29.98R HX  82
WATERTOWN      CLEAR     79  75  89 CALM      29.97R HX  82
MONROE         CLEAR     79  72  78 SW10      29.98S HX  82
JANESVILLE     CLEAR     81  70  69 S8        29.97S HX  84
$$

WIZ051-052-058>065-066-070>072-020200-
SOUTHEAST WISCONSIN

CITY           SKY/WX    TMP DP  RH WIND       PRES   REMARKS
MILWAUKEE      PTCLDY    82  70  66 S7        29.98R HX  86
WAUKESHA       NOT AVBL
MILWAUKEE/TIMM CLEAR     82  66  57 S3        29.98S HX  85
RACINE         CLEAR     80  69  69 SW5       30.00R HX  83
BURLINGTON     CLEAR     75  70  84 S3        29.99R
KENOSHA        CLEAR     81  70  69 S6        29.99R HX  84
FOND DU LAC    CLEAR     77  72  84 S6        29.96R
SHEBOYGAN      CLEAR     73  70  90 S5        29.97R FOG
WEST BEND      CLEAR     79  68  69 CALM      29.97S HX  81
JUNEAU         CLEAR     78  72  81 S3        29.98R HX  81
$$

LSZ147-162-020200-
LAKE SUPERIOR

STATION/POSITION TIME  TEMP    WIND        PRES    WAVE
                       AIR SEA DIR/SP/G            HT/PER
                 (UTC) (F)     (DEG/KT/KT) (MB)    (FT/S)
W MID LAKE BUOY  2350   61 57  220/  4/  6 1012.3R   0
DEVILS ISLAND    0000   70     310/  3/  3 1012.2R
PORT WING        0000   81        CALM     1012.2
SAXON HARBOR     0000   74        CALM     1012.2R
$$

LMZ867-665-643>646-020200-
LAKE MICHIGAN

STATION/POSITION TIME  TEMP    WIND        PRES    WAVE
                       AIR SEA DIR/SP/G            HT/PER
                 (UTC) (F)     (DEG/KT/KT) (MB)    (FT/S)
CHAMBERS ISLAND  0000   77     170/  4/  7 1012.9S
S GREEN BAY BUOY 0000   74 67  200/  6/  8 1014.8S
N MID LAKE BUOY  2350   67 65  200/ 14/ 14 1013.4F   2/ 4
NORTHPORT PIER   0000   67     170/  4/  6 1013.2S
SISTER BAY       0004   69     130/ 10/ 13   N/A
ALGOMA LAKESHORE 0014          200/  4/  6   N/A
KEWAUNEE LAKESHO 0000   53     180/  5/  7 1013.1S
SHEBOYGAN LAKESH 0000   68     180/ 13/ 14 1014.5R
PORT WASHINGTON  0040   62      CALM  /  2 1015.2S
ATWATER BUOY     0000   59 51  150/  8/  8 1016.0R
MILWAUKEE LAKESH 0010          140/  5/  8   N/A
S MID LAKE BUOY  2350   74 70  180/ 12/ 12 1014.8F   1/ 3
KENOSHA   LAKESH 0000   78     200/  6/  8 1014.9R
$$

TC  - TEMPERATURE IN CELSIUS
VSB - VISIBILITY IN STATUTE MILES
WCI - WIND CHILL INDEX
HX  - HEAT INDEX




USA.gov is the U.S. government's official web portal to all federal, state and local government web resources and services.